Wind_Speed
20 20 21 21 22 21 21 20 20 20 21 21 22 23 23 23 23 23 23 24 23 23 23 24 25 26 26 26 26 26 27 27 27 27 27 26 26 26 26 26 25 25 25
21 22 22 22 22 22 22 22 21 21 21 22 22 22 22 22 23 24 24 23 24 23 23 23 25 26 27 27 28 28 28 28 29 29 28 28 27 28 27 27 27 26 26
23 23 23 24 23 23 22 22 22 23 23 22 22 22 23 23 23 23 24 24 24 24 24 24 25 26 27 28 29 29 29 29 30 30 29 29 29 29 29 28 28 28 27
24 25 24 24 24 24 23 24 23 24 24 23 23 24 24 24 24 24 24 24 24 25 25 25 26 27 28 28 29 30 30 30 30 30 31 30 30 30 30 30 30 29 29
25 24 24 24 24 24 25 25 24 25 24 24 24 24 24 24 24 24 24 24 24 25 26 27 27 28 28 29 30 30 31 32 32 32 31 31 31 30 30 31 31 31 30
24 24 25 25 25 25 25 25 25 25 25 25 24 25 25 25 25 25 25 25 26 26 27 27 28 29 29 29 30 31 31 32 33 34 33 33 33 32 32 31 32 32 32
25 25 26 26 25 25 26 26 25 25 26 25 25 25 24 25 25 25 25 26 26 26 27 28 28 28 29 29 29 30 31 32 33 34 34 35 34 34 34 33 33 33 33
27 27 27 27 26 26 26 27 26 26 26 25 26 25 25 26 26 26 27 27 27 27 27 27 28 28 28 28 28 29 31 32 32 33 34 35 35 36 35 35 34 34 34
28 28 27 27 27 27 26 26 25 25 26 26 25 26 26 25 25 26 26 26 26 26 26 27 27 27 27 27 28 29 30 31 32 33 34 34 34 35 35 36 36 36 36
28 27 27 27 27 27 27 27 27 26 27 27 27 27 26 25 25 25 26 26 25 26 25 26 27 28 28 28 29 29 30 30 32 34 35 35 34 34 35 36 37 36 37
27 27 27 27 28 28 28 28 28 28 28 27 27 27 27 27 26 26 25 25 26 26 25 26 26 27 28 27 28 29 30 31 33 34 34 35 35 35 35 36 37 37 37
27 27 27 27 27 27 27 27 28 28 28 28 28 27 27 27 27 26 26 26 26 26 26 27 27 27 27 27 27 28 30 31 33 35 35 36 36 36 35 36 37 38 38
27 27 27 27 26 26 26 27 27 28 27 27 27 27 27 27 27 27 27 26 25 25 26 27 27 27 27 28 28 29 30 31 32 34 35 35 36 36 36 37 37 38 39
27 27 27 26 27 27 27 27 27 28 27 26 27 27 27 27 28 27 27 27 26 26 26 26 27 27 27 27 28 29 30 30 31 32 33 35 35 36 36 37 37 38 39
25 26 26 26 26 26 27 27 26 26 26 26 27 27 27 27 26 26 26 26 26 26 26 27 27 28 28 28 28 29 30 30 32 32 34 35 35 36 36 37 37 38 38
23 24 25 25 25 25 25 25 25 26 26 25 25 26 26 26 26 25 25 26 26 26 26 27 27 28 29 29 29 29 30 30 30 31 33 34 35 36 36 37 37 37 38
23 24 24 24 24 24 24 24 25 25 24 24 24 25 25 25 25 24 25 25 25 26 26 26 27 28 28 28 29 29 30 30 30 31 32 33 34 34 35 36 37 36 37
23 23 23 22 22 23 24 24 24 24 24 24 24 24 24 25 25 25 25 26 26 26 27 27 26 26 27 28 28 29 29 30 30 30 31 31 32 33 34 35 36 36 36
21 21 21 21 22 23 23 23 23 23 23 23 24 24 24 24 24 25 26 26 26 26 26 26 26 26 26 26 26 27 27 28 28 29 30 30 31 32 33 33 34 35 35
21 21 21 21 21 21 21 22 22 22 23 23 24 24 24 24 24 26 26 26 26 26 26 26 26 26 26 26 26 26 26 27 28 28 28 29 30 31 31 32 32 33 33
20 20 20 20 20 21 21 22 22 22 21 22 23 24 24 24 24 25 25 25 25 26 26 26 25 26 26 27 27 27 26 26 27 27 27 28 29 29 30 31 32 33 33
19 20 19 20 20 21 21 21 21 21 21 22 23 23 23 24 25 25 25 25 25 25 25 25 25 26 26 26 26 26 26 26 27 27 28 28 29 30 31 31 30 31 32
18 18 19 20 20 21 21 20 20 21 21 22 23 24 25 26 26 25 25 25 25 25 25 25 26 25 25 25 26 26 26 26 26 27 28 28 28 29 30 31 30 30 30
17 18 18 19 20 20 19 20 21 22 23 23 24 25 26 27 26 27 26 26 26 26 27 27 27 26 26 26 26 25 25 25 26 26 27 28 29 29 29 29 30 30 31
17 18 18 19 20 20 20 21 22 23 24 24 25 26 26 26 26 27 26 26 26 27 28 28 28 27 27 26 26 26 25 24 24 25 26 26 28 28 29 29 29 30 31
17 18 18 19 20 20 21 22 23 24 25 26 27 27 27 27 27 27 26 26 27 27 28 27 27 26 26 25 25 25 25 25 25 25 26 27 27 28 28 28 29 30 30
Wind_Direction
293 294 294 294 292 291 293 293 292 293 294 293 290 287 287 284 282 280 279 277 275 273 270 268 265 264 262 260 259 256 253 252 253 252 250 248 247 247 247 246 244 243 241
295 295 294 295 295 292 293 293 292 292 292 292 290 288 285 284 283 282 280 277 275 273 271 269 267 266 263 260 259 257 254 252 251 252 251 249 247 246 246 245 244 243 241
294 295 295 297 297 296 295 292 291 292 290 290 289 289 286 286 286 283 280 277 276 274 272 270 268 267 264 261 258 256 254 252 251 250 250 249 248 246 245 245 243 243 242
294 294 294 296 296 296 295 293 289 292 291 289 289 290 288 286 285 284 282 279 276 274 273 272 269 267 265 263 259 256 254 252 250 250 249 248 248 246 246 244 242 242 241
292 295 294 294 294 295 294 293 289 292 290 290 290 291 289 287 287 285 283 281 279 278 277 273 271 268 266 263 260 257 255 252 249 249 248 247 247 245 245 244 242 242 240
290 293 294 294 295 294 294 293 290 291 290 290 290 290 288 286 287 285 282 281 280 279 278 276 273 270 267 263 260 257 255 252 249 248 247 247 246 245 244 244 242 241 240
289 291 292 292 293 294 294 293 292 291 290 290 290 290 288 287 288 286 283 282 281 279 277 276 273 271 268 264 261 257 254 252 250 248 247 247 247 246 245 244 242 241 241
290 290 291 291 292 292 293 293 292 290 291 291 289 289 288 287 287 285 283 283 282 279 277 275 272 270 266 264 261 258 256 253 250 249 248 248 247 246 244 244 243 241 240
291 290 290 290 290 291 292 292 290 289 290 290 289 290 288 285 286 287 286 285 282 279 277 275 270 266 265 264 262 260 258 255 251 250 249 248 247 246 244 244 243 241 240
292 290 290 290 290 291 291 290 289 289 289 289 290 289 288 287 287 285 285 285 282 280 277 274 269 267 267 264 261 261 259 257 253 251 250 248 246 246 245 244 243 241 240
293 293 293 292 290 290 291 290 288 289 289 289 289 289 288 288 288 286 284 284 282 281 278 274 270 269 269 268 265 263 261 259 256 253 251 249 248 247 246 244 243 241 240
293 293 293 292 291 289 290 290 289 290 289 290 290 289 289 289 289 287 284 283 282 280 279 276 273 272 271 269 267 266 263 261 257 253 251 249 247 247 247 246 245 243 241
293 293 292 292 292 291 291 291 291 292 292 291 291 290 290 290 290 288 285 284 283 281 279 277 275 274 272 270 268 267 265 261 258 254 251 249 247 246 247 247 246 244 242
295 293 294 293 293 293 292 292 292 294 293 292 292 291 291 291 291 289 287 284 283 282 279 277 276 275 273 273 270 268 266 262 258 255 252 249 248 247 246 246 245 244 243
296 295 294 293 293 294 295 294 294 296 295 295 294 294 293 291 291 289 287 285 284 282 279 278 277 277 275 273 271 270 267 264 259 255 252 251 249 247 246 245 245 245 244
299 296 295 294 294 295 296 295 297 299 299 299 296 294 292 290 291 290 288 286 285 283 281 279 278 278 275 274 273 271 268 266 262 258 255 252 250 248 246 244 243 245 244
301 300 298 298 296 296 297 297 299 299 299 299 297 296 295 292 292 291 290 289 286 284 284 281 281 280 277 275 274 272 268 266 264 260 256 254 252 249 246 244 243 244 244
303 304 301 299 298 298 298 299 299 299 299 300 299 298 295 293 291 289 290 289 287 287 286 284 284 282 279 277 275 272 268 265 263 260 257 254 251 248 246 243 243 242 243
305 305 302 300 301 301 301 301 301 301 301 301 300 299 296 295 294 294 292 290 289 288 288 287 286 285 283 280 278 273 269 266 262 258 255 252 249 246 243 242 242 242 242
307 306 305 304 305 306 305 305 303 302 302 302 300 299 298 297 297 296 293 291 289 288 288 288 286 285 284 282 280 275 272 267 264 259 255 250 247 244 242 241 242 243 242
311 310 310 308 309 310 310 309 307 304 302 303 304 302 300 298 300 298 295 293 291 289 287 287 286 285 284 281 280 276 272 268 264 259 254 249 246 244 244 244 243 243 242
314 314 313 314 314 314 314 313 310 307 304 304 306 305 303 301 302 299 296 295 293 290 287 286 286 286 285 281 278 275 272 268 262 258 253 249 247 245 243 243 242 242 241
318 317 316 316 317 317 317 316 315 313 311 311 309 306 305 304 303 302 300 297 294 291 288 287 288 288 285 282 278 274 272 268 263 257 252 249 248 245 242 242 243 241 241
324 324 320 320 321 322 322 321 321 317 315 315 311 309 308 305 304 302 300 296 293 290 288 287 288 287 286 282 279 276 272 267 262 256 250 249 248 248 246 245 243 242 240
329 329 325 327 327 326 325 324 323 320 319 318 315 311 308 306 305 303 299 296 292 290 290 289 288 286 284 281 278 276 272 267 260 255 251 248 246 247 246 243 242 241 240
337 336 333 332 331 329 327 326 325 323 322 320 318 314 312 309 306 304 301 298 296 294 293 292 290 287 284 281 278 275 271 266 260 257 253 249 247 247 245 243 243 242 240
Height
5845 5843 5841 5839 5838 5836 5833 5831 5830 5828 5826 5824 5822 5821 5819 5817 5816 5814 5813 5811 5810 5809 5808 5808 5808 5807 5807 5808 5809 5810 5811 5812 5813 5814 5815 5817 5818 5820 5821 5823 5825 5827 5829
5840 5838 5836 5834 5831 5829 5828 5826 5824 5823 5821 5819 5817 5815 5813 5811 5810 5808 5807 5805 5804 5803 5802 5802 5801 5801 5800 5801 5802 5803 5804 5805 5806 5807 5809 5810 5812 5814 5815 5817 5819 5821 5823
5835 5833 5831 5829 5826 5825 5822 5821 5819 5817 5815 5813 5812 5810 5807 5805 5803 5802 5800 5799 5797 5796 5796 5795 5794 5794 5793 5794 5794 5795 5796 5797 5799 5800 5802 5803 5805 5807 5809 5811 5813 5815 5817
5829 5827 5825 5823 5821 5819 5817 5815 5812 5811 5809 5807 5805 5803 5801 5799 5797 5795 5793 5792 5791 5789 5788 5787 5787 5786 5786 5786 5786 5787 5788 5789 5791 5793 5794 5796 5798 5799 5802 5804 5806 5808 5810
5823 5821 5819 5817 5815 5813 5811 5809 5806 5804 5803 5801 5799 5797 5795 5793 5790 5788 5786 5785 5783 5782 5781 5779 5779 5778 5778 5778 5778 5778 5779 5781 5783 5784 5786 5788 5790 5792 5794 5796 5799 5801 5803
5816 5815 5813 5811 5809 5806 5804 5802 5801 5798 5796 5794 5792 5790 5788 5786 5783 5781 5779 5777 5776 5774 5773 5772 5770 5770 5769 5769 5769 5770 5771 5772 5774 5776 5778 5780 5782 5784 5786 5789 5791 5793 5796
5810 5808 5806 5804 5802 5800 5798 5796 5793 5791 5789 5787 5785 5783 5781 5779 5776 5774 5772 5770 5768 5766 5765 5763 5762 5761 5761 5761 5761 5761 5762 5763 5765 5767 5769 5771 5773 5776 5778 5781 5783 5786 5788
5803 5801 5799 5797 5795 5793 5791 5789 5786 5784 5782 5780 5778 5776 5774 5772 5769 5767 5764 5762 5760 5758 5757 5755 5754 5753 5752 5752 5752 5752 5753 5754 5756 5757 5760 5762 5764 5767 5769 5772 5774 5777 5780
5797 5794 5792 5790 5788 5786 5783 5782 5779 5777 5775 5772 5770 5769 5767 5764 5762 5759 5757 5754 5752 5750 5748 5747 5746 5745 5744 5744 5744 5744 5744 5745 5747 5748 5750 5752 5755 5757 5760 5763 5766 5769 5772
5790 5787 5785 5783 5781 5778 5776 5774 5772 5770 5767 5765 5763 5761 5759 5756 5755 5752 5750 5747 5744 5742 5740 5739 5738 5737 5736 5736 5736 5735 5736 5736 5738 5739 5741 5743 5745 5748 5750 5753 5756 5759 5763
5783 5780 5778 5776 5773 5771 5769 5767 5764 5762 5760 5757 5755 5753 5750 5748 5746 5744 5742 5739 5737 5734 5732 5731 5730 5729 5728 5727 5727 5727 5727 5727 5728 5730 5731 5734 5736 5739 5741 5744 5747 5750 5753
5775 5773 5771 5768 5766 5764 5762 5759 5757 5754 5752 5750 5747 5745 5742 5740 5738 5735 5733 5731 5729 5727 5725 5723 5721 5720 5720 5719 5719 5719 5718 5718 5719 5720 5722 5724 5727 5729 5732 5734 5737 5740 5744
5768 5765 5763 5761 5759 5756 5754 5751 5749 5747 5744 5742 5739 5737 5734 5732 5729 5727 5725 5723 5721 5719 5717 5715 5714 5712 5711 5711 5710 5710 5710 5710 5710 5711 5712 5714 5717 5720 5722 5725 5728 5731 5734
5760 5758 5756 5754 5752 5749 5747 5744 5741 5739 5736 5734 5732 5729 5726 5723 5720 5718 5716 5714 5713 5711 5709 5708 5706 5704 5703 5702 5701 5700 5700 5700 5701 5702 5703 5705 5707 5710 5713 5716 5718 5721 5724
5753 5751 5749 5747 5745 5742 5739 5737 5734 5732 5729 5726 5724 5721 5718 5715 5712 5710 5708 5706 5705 5703 5702 5700 5698 5696 5694 5693 5692 5691 5691 5691 5692 5693 5694 5695 5697 5700 5703 5706 5708 5711 5714
5747 5745 5742 5740 5738 5735 5733 5730 5727 5725 5722 5719 5716 5713 5710 5707 5705 5702 5700 5698 5696 5695 5693 5691 5689 5687 5686 5685 5683 5682 5682 5682 5682 5683 5684 5685 5687 5690 5693 5696 5699 5702 5705
5741 5738 5735 5733 5731 5729 5726 5723 5720 5718 5715 5712 5709 5706 5703 5700 5697 5695 5692 5690 5688 5686 5685 5683 5681 5679 5677 5676 5675 5673 5673 5672 5672 5673 5674 5676 5678 5680 5683 5686 5689 5692 5694
5735 5732 5729 5727 5725 5722 5720 5717 5714 5711 5708 5705 5702 5698 5695 5693 5690 5688 5685 5682 5680 5678 5677 5675 5673 5670 5669 5667 5666 5665 5664 5663 5663 5664 5664 5666 5668 5670 5673 5676 5679 5682 5684
5729 5726 5724 5721 5719 5716 5713 5710 5707 5704 5701 5698 5695 5691 5688 5686 5683 5681 5678 5675 5672 5670 5668 5666 5665 5662 5660 5659 5657 5656 5655 5654 5654 5654 5655 5657 5659 5661 5663 5666 5669 5672 5675
5724 5721 5719 5716 5713 5710 5707 5704 5701 5697 5694 5691 5688 5684 5681 5679 5676 5673 5670 5667 5665 5662 5660 5659 5657 5654 5652 5650 5649 5648 5647 5646 5646 5646 5646 5648 5650 5652 5654 5657 5660 5663 5666
5720 5717 5714 5711 5708 5705 5702 5698 5694 5691 5688 5684 5681 5678 5675 5672 5669 5666 5662 5660 5657 5655 5653 5651 5649 5646 5644 5642 5641 5639 5638 5637 5637 5637 5638 5640 5642 5644 5646 5648 5651 5654 5656
5716 5713 5710 5707 5703 5700 5696 5693 5689 5685 5682 5679 5675 5672 5668 5665 5662 5658 5655 5652 5649 5647 5645 5643 5641 5639 5636 5634 5632 5631 5630 5629 5629 5629 5630 5631 5633 5635 5637 5640 5642 5645 5647
5712 5709 5706 5703 5699 5696 5692 5688 5683 5680 5676 5673 5669 5666 5662 5658 5654 5651 5648 5645 5642 5639 5637 5635 5633 5630 5628 5625 5623 5622 5621 5620 5620 5620 5621 5623 5624 5626 5629 5631 5633 5636 5638
5709 5706 5702 5698 5695 5691 5688 5683 5679 5675 5671 5667 5664 5660 5656 5652 5648 5644 5641 5638 5634 5631 5629 5626 5624 5621 5619 5616 5615 5613 5612 5611 5611 5612 5612 5614 5616 5618 5620 5622 5624 5627 5629
5706 5702 5699 5695 5691 5687 5684 5679 5675 5671 5667 5662 5658 5654 5649 5645 5641 5637 5633 5630 5626 5623 5620 5617 5614 5612 5610 5608 5606 5605 5604 5603 5603 5604 5604 5605 5607 5609 5611 5613 5615 5618 5620
5704 5700 5696 5692 5688 5684 5680 5676 5671 5667 5662 5658 5653 5647 5643 5638 5634 5629 5625 5622 5618 5614 5611 5608 5605 5602 5601 5599 5597 5596 5595 5595 5595 5596 5596 5597 5599 5600 5603 5605 5607 5609 5612